Weather History for Greenwood, SC

Change the Weather History Date:

Friday, November 1, 2013

  Actual Average (KAND) Record (KAND)
Temperature  
Mean Temperature 65 °F -  
Max Temperature 70 °F 70 °F 86 °F (1950)
Min Temperature 60 °F 49 °F 28 °F (1954)
Growing Degree Days 15 (Base 50)    
Moisture  
Dew Point 61 °F    
Average Humidity 88    
Maximum Humidity 94    
Minimum Humidity 73    
Precipitation  
Precipitation 0.60 in - - ()
Sea Level Pressure  
Sea Level Pressure 29.81 in    
Wind  
Wind Speed 9 mph (SW)    
Max Wind Speed 13 mph    
Max Gust Speed 22 mph    
Visibility 7 miles    
Events Rain    
Averages and records for this station are not official NWS values.
T = Trace of Precipitation, MM = Missing Value Source: NWS Daily Summary

Daily Weather History Graph

Daily Weather History Graph

Search for Another Location

Airport:

Trip Planner

Search our weather history database for the weather conditions in past years. The results will help you decide how hot, cold, wet, or windy it might be!

Date:

Astronomy

Nov. 01, 2013 Rise Set
Actual Time 7:48 AM EDT 6:35 PM EDT
Civil Twilight 7:22 AM EDT 7:01 PM EDT
Nautical Twilight 6:53 AM EDT 7:30 PM EDT
Astronomical Twilight 6:23 AM EDT 8:00 PM EDT
Moon 5:44 AM EDT (11/1) 5:23 PM EDT (11/1)
Length of Visible Light 11h 38m
Length of Day
10h 46m
Waning Crescent, 4% of the Moon is Illuminated
Nov 1
Waning Crescent
Nov 3
New
Nov 10
First Quarter
Nov 17
Full
Nov 25
Last Quarter

Hourly Weather History & Observations

Time (EDT) Temp. Dew Point Humidity Pressure Visibility Wind Dir Wind Speed Gust Speed Precip Events Conditions
12:56 AM 70.0 °F 63.0 °F 78% 29.90 in 10.0 mi South 11.5 mph - N/A   Mostly Cloudy
1:56 AM 70.0 °F 63.0 °F 78% 29.86 in 10.0 mi South 11.5 mph - N/A   Clear
2:56 AM 70.0 °F 61.0 °F 73% 29.83 in 10.0 mi South 12.7 mph 21.9 mph N/A   Clear
3:56 AM 69.1 °F 60.1 °F 73% 29.82 in 10.0 mi SSW 10.4 mph 20.7 mph N/A   Scattered Clouds
4:56 AM 68.0 °F 59.0 °F 73% 29.81 in 10.0 mi SSW 10.4 mph - 0.00 in Rain Light Rain
5:56 AM 66.9 °F 61.0 °F 81% 29.81 in 10.0 mi SSW 9.2 mph - 0.00 in Rain Light Rain
6:56 AM 69.1 °F 62.1 °F 78% 29.81 in 10.0 mi SSW 12.7 mph 21.9 mph 0.00 in   Partly Cloudy
7:22 AM 69.8 °F 62.6 °F 78% 29.82 in 10.0 mi SSW 12.7 mph - N/A   Mostly Cloudy
7:56 AM 69.1 °F 63.0 °F 81% 29.81 in 10.0 mi SSW 12.7 mph 20.7 mph N/A   Overcast
8:56 AM 69.1 °F 64.0 °F 84% 29.83 in 10.0 mi SSW 11.5 mph - 0.00 in Rain Light Rain
9:11 AM 69.8 °F 64.4 °F 83% 29.85 in 5.0 mi SSW 10.4 mph - 0.02 in Rain Rain
9:25 AM 68.0 °F 64.4 °F 88% 29.86 in 2.5 mi SSW 10.4 mph 19.6 mph 0.07 in Rain Rain
9:32 AM 68.0 °F 64.4 °F 88% 29.85 in 3.0 mi SSW 9.2 mph - 0.08 in Rain Light Rain
9:56 AM 66.9 °F 64.0 °F 90% 29.86 in 2.0 mi West 10.4 mph 18.4 mph 0.13 in Rain Rain
10:01 AM 66.2 °F 64.4 °F 94% 29.86 in 3.0 mi Variable 4.6 mph - 0.00 in Rain Light Rain
10:27 AM 66.2 °F 64.4 °F 94% 29.86 in 10.0 mi West 5.8 mph - 0.00 in   Overcast
10:56 AM 66.0 °F 63.0 °F 90% 29.85 in 3.0 mi West 5.8 mph - 0.01 in Rain Light Rain
11:03 AM 66.2 °F 62.6 °F 88% 29.86 in 4.0 mi West 6.9 mph - 0.01 in Rain Light Rain
11:12 AM 66.2 °F 62.6 °F 88% 29.86 in 5.0 mi West 8.1 mph - 0.01 in Rain Light Rain
11:21 AM 64.4 °F 60.8 °F 88% 29.86 in 6.0 mi West 10.4 mph 19.6 mph 0.01 in Rain Light Rain
11:39 AM 64.4 °F 60.8 °F 88% 29.85 in 3.0 mi West 3.5 mph - 0.04 in Rain Rain
11:47 AM 64.4 °F 60.8 °F 88% 29.84 in 6.0 mi West 4.6 mph - 0.05 in Rain Light Rain
11:56 AM 64.0 °F 62.1 °F 93% 29.84 in 2.5 mi SW 3.5 mph - 0.06 in Rain Light Rain
12:43 PM 62.6 °F 60.8 °F 94% 29.84 in 1.5 mi WSW 3.5 mph - 0.14 in Rain Heavy Rain
12:56 PM 63.0 °F 61.0 °F 93% 29.83 in 2.0 mi SW 6.9 mph - 0.18 in Rain Rain
1:05 PM 62.6 °F 60.8 °F 94% 29.85 in 6.0 mi SSW 10.4 mph - 0.00 in Rain Light Rain
1:43 PM 62.6 °F 59.0 °F 88% 29.83 in 1.8 mi SW 9.2 mph - 0.08 in Rain Heavy Rain
1:56 PM 62.1 °F 59.0 °F 90% 29.80 in 1.5 mi WSW 8.1 mph - 0.15 in Rain Rain
2:00 PM 62.6 °F 59.0 °F 88% 29.81 in 3.0 mi SW 10.4 mph - 0.00 in Rain Rain
2:56 PM 63.0 °F 60.1 °F 90% 29.75 in 10.0 mi South 6.9 mph - 0.04 in   Overcast
3:52 PM 62.6 °F 60.8 °F 94% 29.76 in 10.0 mi South 9.2 mph - 0.00 in   Overcast
3:56 PM 63.0 °F 60.1 °F 90% 29.74 in 10.0 mi South 8.1 mph - 0.00 in Rain Light Rain
4:56 PM 62.1 °F 59.0 °F 90% 29.75 in 10.0 mi SSW 6.9 mph - 0.02 in Rain Light Rain
5:56 PM 61.0 °F 57.9 °F 90% 29.73 in 10.0 mi SSW 6.9 mph - 0.01 in   Partly Cloudy
6:56 PM 60.1 °F 57.9 °F 93% 29.74 in 10.0 mi SW 6.9 mph - 0.00 in Rain Light Rain
7:33 PM 60.8 °F 57.2 °F 88% 29.76 in 10.0 mi SW 5.8 mph - 0.00 in   Scattered Clouds
7:48 PM 60.8 °F 59.0 °F 94% 29.77 in 10.0 mi SW 8.1 mph - 0.00 in Rain Light Rain
7:56 PM 61.0 °F 59.0 °F 93% 29.76 in 10.0 mi SW 6.9 mph - 0.00 in   Overcast
8:27 PM 62.6 °F 60.8 °F 94% 29.78 in 10.0 mi SW 9.2 mph - 0.00 in   Overcast
8:56 PM 62.1 °F 60.1 °F 93% 29.76 in 9.0 mi WSW 6.9 mph - 0.00 in   Overcast
9:56 PM 63.0 °F 61.0 °F 93% 29.77 in 10.0 mi WSW 8.1 mph - N/A   Overcast
10:54 PM 62.6 °F 60.8 °F 94% 29.79 in 9.0 mi WSW 11.5 mph - N/A   Overcast
10:56 PM 63.0 °F 60.1 °F 90% 29.78 in 9.0 mi WSW 9.2 mph - N/A   Overcast
11:52 PM 60.8 °F 59.0 °F 94% 29.79 in 9.0 mi WSW 6.9 mph - N/A   Scattered Clouds
11:56 PM 61.0 °F 59.0 °F 93% 29.78 in 8.0 mi WSW 9.2 mph - N/A   Partly Cloudy